| time (UTC) | temp F | wind direction | speed MPH | gust MPH | rain 1hr in | rain 24hr in | rain mn in | humidity % | barometer mb |
| 20260505003413 | 53 | 34 | 2.0 | 7.0 | 0.00 | 0.75 | 0.00 | 89 | 1012.5 |
| 20260505002331 | 53 | 3 | 3.0 | 10.0 | 0.00 | 0.75 | 0.00 | 89 | 1012.5 |
| 20260505001321 | 53 | 11 | 1.0 | 7.0 | 0.00 | 0.75 | 0.00 | 89 | 1012.6 |
| 20260505000324 | 54 | 23 | 2.0 | 7.0 | 0.00 | 0.75 | 0.00 | 89 | 1012.7 |
| 20260504235334 | 54 | 30 | 1.0 | 6.0 | 0.00 | 0.75 | 0.00 | 89 | 1012.7 |
| 20260504234323 | 54 | 3 | 1.0 | 7.0 | 0.00 | 0.75 | 0.00 | 89 | 1012.7 |
| 20260504233336 | 54 | 28 | 2.0 | 9.0 | 0.00 | 0.75 | 0.00 | 90 | 1012.8 |
| 20260504232331 | 54 | 287 | 3.0 | 9.0 | 0.00 | 0.75 | 0.00 | 90 | 1013.0 |
| 20260504231400 | 54 | 19 | 2.0 | 7.0 | 0.00 | 0.75 | 0.00 | 90 | 1013.0 |
| 20260504230335 | 54 | 356 | 3.0 | 10.0 | 0.00 | 0.75 | 0.00 | 90 | 1013.1 |
| 20260504225346 | 54 | 354 | 3.0 | 10.0 | 0.00 | 0.75 | 0.00 | 90 | 1013.0 |
| 20260504224338 | 54 | 4 | 3.0 | 8.0 | 0.00 | 0.75 | 0.00 | 90 | 1013.1 |
| 20260504223329 | 54 | 6 | 2.0 | 7.0 | 0.00 | 0.75 | 0.00 | 90 | 1013.1 |
| 20260504222331 | 54 | 54 | 1.0 | 5.0 | 0.00 | 0.75 | 0.00 | 90 | 1013.1 |
| 20260504221354 | 54 | 325 | 3.0 | 8.0 | 0.00 | 0.75 | 0.00 | 90 | 1013.2 |
| 20260504220340 | 55 | 336 | 1.0 | 10.0 | 0.00 | 0.75 | 0.00 | 90 | 1013.2 |
| 20260504215359 | 55 | 3 | 3.0 | 10.0 | 0.00 | 0.75 | 0.15 | 90 | 1013.2 |
| 20260504214353 | 55 | 342 | 2.0 | 7.0 | 0.00 | 0.75 | 0.15 | 91 | 1013.2 |
| 20260504213340 | 55 | 349 | 2.0 | 6.0 | 0.00 | 0.75 | 0.15 | 91 | 1013.3 |
| 20260504212332 | 55 | 11 | 2.0 | 8.0 | 0.00 | 0.75 | 0.15 | 91 | 1013.4 |
| 20260504211325 | 55 | 350 | 2.0 | 10.0 | 0.00 | 0.75 | 0.15 | 91 | 1013.5 |
| 20260504210408 | 55 | 25 | 2.0 | 4.0 | 0.00 | 0.75 | 0.15 | 91 | 1013.5 |
| 20260504205331 | 55 | 21 | 2.0 | 6.0 | 0.00 | 0.75 | 0.15 | 91 | 1013.4 |
| 20260504204322 | 55 | 36 | 0.0 | 7.0 | 0.00 | 0.75 | 0.15 | 91 | 1013.5 |
| 20260504203328 | 56 | 338 | 1.0 | 7.0 | 0.00 | 0.75 | 0.15 | 91 | 1013.4 |
| 20260504202329 | 56 | 13 | 2.0 | 7.0 | 0.00 | 0.75 | 0.15 | 91 | 1013.4 |
| 20260504201326 | 57 | 7 | 0.0 | 4.0 | 0.00 | 0.75 | 0.15 | 91 | 1013.3 |
| 20260504200343 | 57 | 3 | 0.0 | 2.0 | 0.00 | 0.75 | 0.15 | 91 | 1013.3 |
| 20260504195348 | 57 | 25 | 1.0 | 5.0 | 0.00 | 0.75 | 0.15 | 91 | 1013.3 |
| 20260504194324 | 57 | 331 | 1.0 | 4.0 | 0.00 | 0.75 | 0.15 | 91 | 1013.1 |
| 20260504193336 | 58 | 321 | 1.0 | 4.0 | 0.00 | 0.75 | 0.15 | 91 | 1013.1 |
| 20260504192326 | 58 | 10 | 0.0 | 3.0 | 0.00 | 0.75 | 0.15 | 91 | 1012.9 |
| 20260504191355 | 58 | 5 | 1.0 | 4.0 | 0.00 | 0.75 | 0.15 | 91 | 1012.9 |
| 20260504190337 | 58 | 50 | 0.0 | 1.0 | 0.00 | 0.75 | 0.15 | 91 | 1012.8 |
| 20260504185328 | 59 | 7 | 0.0 | 7.0 | 0.00 | 0.94 | 0.15 | 91 | 1012.7 |
| 20260504184338 | 59 | 6 | 1.0 | 5.0 | 0.00 | 0.94 | 0.15 | 91 | 1012.6 |
| 20260504183400 | 59 | 35 | 1.0 | 4.0 | 0.00 | 0.94 | 0.15 | 91 | 1012.7 |
| 20260504182324 | 59 | 359 | 1.0 | 4.0 | 0.00 | 0.94 | 0.15 | 91 | 1012.7 |
| 20260504181322 | 60 | 318 | 2.0 | 7.0 | 0.00 | 0.94 | 0.15 | 91 | 1012.5 |
| 20260504180333 | 60 | 5 | 1.0 | 5.0 | 0.00 | 0.94 | 0.15 | 91 | 1012.6 |
| 20260504175357 | 60 | 351 | 1.0 | 3.0 | 0.04 | 1.10 | 0.15 | 91 | 1012.6 |
| 20260504174330 | 60 | 357 | 0.0 | 4.0 | 0.08 | 1.10 | 0.15 | 91 | 1012.6 |
| 20260504173322 | 60 | 350 | 0.0 | 3.0 | 0.16 | 1.10 | 0.15 | 91 | 1012.6 |
| 20260504172334 | 60 | 346 | 0.0 | 7.0 | 0.20 | 1.10 | 0.15 | 92 | 1012.6 |
| 20260504171348 | 60 | 319 | 1.0 | 4.0 | 0.28 | 1.10 | 0.15 | 91 | 1012.7 |
| 20260504170340 | 60 | 315 | 0.0 | 2.0 | 0.31 | 1.10 | 0.15 | 91 | 1012.7 |
| 20260504160339 | 61 | 33 | 0.0 | 1.0 | 0.35 | 0.87 | 0.09 | 89 | 1012.7 |
| 20260504150339 | 64 | 144 | 3.0 | 9.0 | 0.04 | 0.51 | 0.02 | 86 | 1012.5 |
| 20260504140324 | 65 | 1 | 0.0 | 0.0 | 0.00 | 0.51 | 0.01 | 80 | 1012.9 |
| 20260504130324 | 68 | 92 | 1.0 | 5.0 | 0.00 | 0.71 | 0.01 | 73 | 1012.9 |
| 20260504110348 | 68 | 186 | 1.0 | 5.0 | 0.00 | 0.79 | 0.01 | 75 | 1013.2 |
| 20260504100347 | 67 | 221 | 1.0 | 4.0 | 0.00 | 1.02 | 0.01 | 79 | 1013.4 |
| 20260504081340 | 59 | 247 | 0.0 | 2.0 | 0.00 | 1.26 | 0.01 | 96 | 1013.3 |
| 20260504080323 | 59 | 290 | 0.0 | 0.0 | 0.00 | 1.26 | 0.01 | 96 | 1013.2 |
| 20260504070334 | 58 | 223 | 1.0 | 2.0 | 0.00 | 1.26 | 0.01 | 96 | 1012.7 |
| 20260504050416 | 54 | 135 | 0.0 | 0.0 | 0.00 | 1.26 | 0.01 | 95 | 1011.8 |
| 20260504045337 | 53 | 134 | 0.0 | 0.0 | 0.00 | 1.26 | 0.01 | 95 | 1011.6 |
| 20260504044328 | 53 | 134 | 0.0 | 0.0 | 0.00 | 1.26 | 0.01 | 95 | 1011.6 |
| 20260504043339 | 53 | 134 | 0.0 | 0.0 | 0.00 | 1.26 | 0.01 | 95 | 1011.6 |
| 20260504042347 | 53 | 135 | 0.0 | 0.0 | 0.00 | 1.26 | 0.01 | 95 | 1011.6 |
| 20260504041337 | 53 | 149 | 0.0 | 0.0 | 0.00 | 1.26 | 0.01 | 95 | 1011.6 |
| 20260504040342 | 53 | 150 | 0.0 | 0.0 | 0.00 | 1.26 | 0.01 | 95 | 1011.7 |
| 20260504035332 | 52 | 150 | 0.0 | 0.0 | 0.00 | 1.30 | 0.01 | 95 | 1011.7 |
| 20260504034340 | 52 | 150 | 0.0 | 0.0 | 0.00 | 1.30 | 0.01 | 95 | 1011.7 |
| 20260504033325 | 52 | 150 | 0.0 | 0.0 | 0.00 | 1.30 | 0.01 | 95 | 1011.7 |
| 20260504032335 | 52 | 150 | 0.0 | 0.0 | 0.00 | 1.30 | 0.01 | 95 | 1011.8 |
| 20260504031338 | 52 | 150 | 0.0 | 2.0 | 0.00 | 1.30 | 0.01 | 95 | 1011.8 |
| 20260504030334 | 51 | 150 | 0.0 | 2.0 | 0.00 | 1.30 | 0.01 | 95 | 1012.0 |
| 20260504025338 | 51 | 148 | 0.0 | 1.0 | 0.00 | 1.42 | 0.01 | 95 | 1011.9 |
| 20260504024328 | 51 | 151 | 0.0 | 1.0 | 0.00 | 1.42 | 0.01 | 94 | 1011.7 |
| 20260504023323 | 51 | 152 | 0.0 | 0.0 | 0.00 | 1.42 | 0.01 | 94 | 1011.7 |
| 20260504022334 | 51 | 152 | 0.0 | 0.0 | 0.00 | 1.42 | 0.01 | 94 | 1011.7 |
| 20260504021329 | 51 | 152 | 0.0 | 0.0 | 0.00 | 1.42 | 0.01 | 94 | 1011.6 |
| 20260504020321 | 51 | 152 | 0.0 | 0.0 | 0.04 | 1.42 | 0.01 | 94 | 1011.6 |
| 20260504015334 | 51 | 152 | 0.0 | 0.0 | 0.04 | 1.46 | 0.01 | 94 | 1011.6 |
| 20260504014323 | 52 | 152 | 0.0 | 0.0 | 0.04 | 1.46 | 0.01 | 94 | 1011.5 |
| 20260504013334 | 52 | 152 | 0.0 | 0.0 | 0.04 | 1.46 | 0.01 | 94 | 1011.6 |
| 20260504012343 | 52 | 152 | 0.0 | 0.0 | 0.04 | 1.46 | 0.01 | 94 | 1011.6 |
| 20260504011339 | 53 | 152 | 0.0 | 0.0 | 0.04 | 1.46 | 0.01 | 94 | 1011.5 |
| 20260504010354 | 53 | 152 | 0.0 | 0.0 | 0.00 | 1.42 | 0.00 | 94 | 1011.4 |
| 20260504005335 | 53 | 152 | 0.0 | 0.0 | 0.00 | 1.42 | 0.00 | 94 | 1011.4 |
| 20260504004326 | 53 | 152 | 0.0 | 0.0 | 0.00 | 1.42 | 0.00 | 94 | 1011.5 |